Torna al catalogo

ONEWEB-0438

AttivoComunicazioniPO
NORAD 51634·PAYLOAD·🇬🇧 United Kingdom

Lanciato Feb 10, 2022 da Guiana Space Centre

Loading…

Prossimi Passaggi (prossime 24 ore)

TLE

AggiornatoSource: CelesTrak SupGP

Epoca: Sep 15, 2026, 05:07 UTC

1 51634C 22012N   26258.21369630  .00005657  00000+0  16222-1 0  2583
2 51634  87.8894  18.3549 0001844 108.2321 292.0812 13.10382172    12

Traccia ONEWEB-0438 in tempo reale con AllMySat

Download on the App Store